SWA2986 KLIT-KBNA

Flight info

Callsign SWA2986
Flight time 0h 54m
Altitude 33000
Route MICKE MEMFS CHSNE3
Aircraft B737/M-SDE2E3FGHIRWXY/LB1

Departure

Time 2026-05-06 00:47
Airport Bill & Hillary Clinton National Airport/Adams Field (KLIT)

Arrival

Time 2026-05-06 01:41
Airport Nashville International Airport (KBNA)
Time Latitude Longitude Altitude Speed Heading
2026-05-06 00:13 34.73124 -92.21953 266 ft 0 kts 193°
2026-05-06 00:37 34.73126 -92.21952 266 ft 1 kts 193°
2026-05-06 00:37 34.73144 -92.21947 267 ft 3 kts 193°
2026-05-06 00:37 34.73159 -92.21943 267 ft 2 kts 193°
2026-05-06 00:38 34.73174 -92.21937 268 ft 3 kts 213°
2026-05-06 00:38 34.73186 -92.21921 268 ft 3 kts 259°
2026-05-06 00:38 34.73186 -92.21900 268 ft 3 kts 285°
2026-05-06 00:38 34.73182 -92.21886 268 ft 1 kts 291°
2026-05-06 00:39 34.73181 -92.21882 268 ft 1 kts 291°
2026-05-06 00:43 34.73193 -92.21920 268 ft 11 kts 290°
2026-05-06 00:43 34.73221 -92.22010 267 ft 12 kts 291°
2026-05-06 00:44 34.73256 -92.22120 266 ft 17 kts 290°
2026-05-06 00:44 34.73303 -92.22225 266 ft 1 kts 337°
2026-05-06 00:44 34.73345 -92.22218 266 ft 9 kts 32°
2026-05-06 00:44 34.73406 -92.22138 266 ft 15 kts 46°
2026-05-06 00:45 34.73490 -92.22030 263 ft 20 kts 46°
2026-05-06 00:45 34.73588 -92.21905 263 ft 20 kts 47°
2026-05-06 00:45 34.73681 -92.21784 263 ft 19 kts 46°
2026-05-06 00:45 34.73750 -92.21752 263 ft 10 kts 339°
2026-05-06 00:46 34.73776 -92.21806 261 ft 10 kts 264°
2026-05-06 00:46 34.73757 -92.21881 260 ft 10 kts 230°
2026-05-06 00:46 34.73627 -92.22046 259 ft 66 kts 226°
2026-05-06 00:46 34.73112 -92.22694 265 ft 147 kts 227°
2026-05-06 00:47 34.72325 -92.23736 839 ft 172 kts 224°
2026-05-06 00:47 34.71275 -92.24361 1891 ft 175 kts 185°
2026-05-06 00:47 34.70109 -92.24005 3146 ft 173 kts 162°
2026-05-06 00:47 34.68955 -92.23292 3722 ft 202 kts 160°
2026-05-06 00:48 34.67613 -92.22448 3990 ft 233 kts 160°
2026-05-06 00:48 34.66161 -92.21547 3989 ft 240 kts 160°
2026-05-06 00:48 34.64635 -92.20600 3996 ft 249 kts 158°
2026-05-06 00:48 34.63358 -92.19007 4447 ft 284 kts 121°
2026-05-06 00:49 34.62872 -92.16622 5508 ft 301 kts 96°
2026-05-06 00:49 34.63108 -92.14049 6524 ft 311 kts 81°
2026-05-06 00:49 34.63572 -92.11445 7451 ft 319 kts 77°
2026-05-06 00:49 34.64091 -92.08825 8387 ft 325 kts 76°
2026-05-06 00:50 34.64631 -92.06139 9354 ft 331 kts 76°
2026-05-06 00:50 34.65178 -92.03386 10209 ft 339 kts 76°
2026-05-06 00:50 34.65730 -92.00561 10989 ft 349 kts 76°
2026-05-06 00:50 34.66286 -91.97663 11786 ft 357 kts 76°
2026-05-06 00:51 34.66847 -91.94697 12637 ft 364 kts 76°
2026-05-06 00:51 34.67415 -91.91668 13516 ft 370 kts 76°
2026-05-06 00:51 34.67986 -91.88599 14286 ft 376 kts 76°
2026-05-06 00:51 34.68565 -91.85469 15066 ft 382 kts 76°
2026-05-06 00:52 34.69152 -91.82289 15840 ft 388 kts 76°
2026-05-06 00:52 34.69744 -91.79071 16616 ft 394 kts 76°
2026-05-06 00:52 34.70349 -91.75782 17378 ft 401 kts 76°
2026-05-06 00:52 34.70961 -91.72439 18119 ft 408 kts 76°
2026-05-06 00:53 34.71580 -91.69060 18804 ft 413 kts 76°
2026-05-06 00:53 34.72204 -91.65641 19534 ft 416 kts 75°
2026-05-06 00:53 34.72834 -91.62189 20274 ft 420 kts 75°
2026-05-06 00:53 34.73468 -91.58709 20984 ft 424 kts 75°
2026-05-06 00:54 34.74107 -91.55193 21691 ft 428 kts 74°
2026-05-06 00:54 34.74752 -91.51643 22398 ft 432 kts 74°
2026-05-06 00:54 34.75403 -91.48055 23109 ft 436 kts 73°
2026-05-06 00:54 34.76049 -91.44483 23722 ft 441 kts 73°
2026-05-06 00:55 34.76719 -91.40772 24286 ft 446 kts 73°
2026-05-06 00:55 34.77377 -91.37122 24832 ft 451 kts 73°
2026-05-06 00:55 34.78051 -91.33378 25391 ft 455 kts 73°
2026-05-06 00:55 34.78729 -91.29602 25942 ft 460 kts 73°
2026-05-06 00:56 34.79413 -91.25784 26482 ft 464 kts 73°
2026-05-06 00:56 34.80105 -91.21918 27015 ft 469 kts 73°
2026-05-06 00:56 34.80799 -91.18026 27541 ft 474 kts 73°
2026-05-06 00:56 34.81500 -91.14090 28062 ft 478 kts 73°
2026-05-06 00:57 34.82208 -91.10109 28586 ft 483 kts 73°
2026-05-06 00:57 34.82919 -91.06100 29099 ft 487 kts 73°
2026-05-06 00:57 34.83635 -91.02056 29610 ft 491 kts 73°
2026-05-06 00:57 34.84356 -90.97977 30069 ft 495 kts 73°
2026-05-06 00:58 34.85082 -90.93855 30470 ft 500 kts 73°
2026-05-06 00:58 34.85813 -90.89701 30871 ft 504 kts 73°
2026-05-06 00:58 34.86526 -90.85640 31257 ft 507 kts 73°
2026-05-06 00:58 34.87286 -90.81302 31647 ft 511 kts 73°
2026-05-06 00:59 34.88029 -90.77050 32011 ft 515 kts 73°
2026-05-06 00:59 34.88776 -90.72766 32367 ft 518 kts 73°
2026-05-06 00:59 34.89527 -90.68457 32718 ft 522 kts 73°
2026-05-06 00:59 34.90286 -90.64107 32822 ft 530 kts 73°
2026-05-06 01:00 34.91055 -90.59690 32818 ft 535 kts 73°
2026-05-06 01:00 34.92584 -90.50829 32803 ft 531 kts 73°
2026-05-06 01:01 34.94084 -90.42069 32815 ft 528 kts 73°
2026-05-06 01:01 34.95589 -90.33274 32816 ft 531 kts 73°
2026-05-06 01:02 34.96974 -90.25142 32817 ft 531 kts 73°
2026-05-06 01:02 34.98467 -90.16334 32823 ft 532 kts 73°
2026-05-06 01:03 34.99939 -90.07602 32848 ft 532 kts 73°
2026-05-06 01:03 35.01436 -89.98751 32832 ft 531 kts 72°
2026-05-06 01:04 35.03853 -89.90377 32840 ft 520 kts 60°
2026-05-06 01:04 35.06749 -89.82254 32825 ft 518 kts 59°
2026-05-06 01:05 35.09591 -89.74163 32821 ft 518 kts 60°
2026-05-06 01:05 35.12338 -89.66029 32819 ft 518 kts 60°
2026-05-06 01:06 35.15040 -89.57883 32832 ft 517 kts 61°
2026-05-06 01:06 35.17716 -89.49795 32844 ft 516 kts 60°
2026-05-06 01:07 35.20405 -89.41669 32833 ft 516 kts 60°
2026-05-06 01:07 35.23092 -89.33535 32832 ft 515 kts 60°
2026-05-06 01:08 35.25773 -89.25398 32832 ft 515 kts 61°
2026-05-06 01:08 35.28446 -89.17262 32844 ft 515 kts 61°
2026-05-06 01:09 35.31109 -89.09133 32839 ft 515 kts 61°
2026-05-06 01:09 35.33316 -89.02378 32842 ft 514 kts 61°
2026-05-06 01:10 35.35967 -88.94246 32849 ft 514 kts 61°
2026-05-06 01:10 35.38612 -88.86109 32837 ft 514 kts 61°
2026-05-06 01:10 35.39934 -88.82038 32605 ft 514 kts 61°
2026-05-06 01:11 35.41248 -88.77977 32346 ft 510 kts 61°
2026-05-06 01:11 35.42545 -88.73958 32091 ft 504 kts 61°
2026-05-06 01:11 35.43829 -88.69984 31841 ft 500 kts 62°
2026-05-06 01:11 35.45105 -88.66034 31600 ft 496 kts 62°
2026-05-06 01:12 35.46369 -88.62114 31361 ft 493 kts 62°
2026-05-06 01:12 35.47624 -88.58210 31077 ft 490 kts 62°
2026-05-06 01:12 35.48868 -88.54339 30634 ft 487 kts 63°
2026-05-06 01:12 35.50105 -88.50482 30205 ft 483 kts 63°
2026-05-06 01:13 35.51330 -88.46657 29737 ft 480 kts 63°
2026-05-06 01:13 35.52546 -88.42856 29206 ft 477 kts 63°
2026-05-06 01:13 35.53752 -88.39083 28712 ft 473 kts 64°
2026-05-06 01:13 35.54945 -88.35346 28215 ft 468 kts 64°
2026-05-06 01:14 35.57295 -88.27968 27254 ft 460 kts 64°
2026-05-06 01:14 35.58433 -88.24393 26775 ft 456 kts 64°
2026-05-06 01:14 35.59598 -88.20728 26296 ft 452 kts 64°
2026-05-06 01:15 35.60744 -88.17116 25827 ft 449 kts 65°
2026-05-06 01:15 35.61873 -88.13556 25360 ft 446 kts 65°
2026-05-06 01:15 35.62988 -88.10034 25007 ft 439 kts 65°
2026-05-06 01:15 35.64093 -88.06543 24548 ft 437 kts 65°
2026-05-06 01:16 35.65190 -88.03077 24082 ft 434 kts 65°
2026-05-06 01:16 35.66284 -87.99619 23593 ft 433 kts 65°
2026-05-06 01:16 35.67372 -87.96174 23038 ft 431 kts 65°
2026-05-06 01:16 35.68451 -87.92752 22512 ft 428 kts 65°
2026-05-06 01:17 35.69522 -87.89350 22003 ft 425 kts 65°
2026-05-06 01:17 35.70584 -87.85975 21518 ft 422 kts 65°
2026-05-06 01:17 35.71626 -87.82657 21023 ft 419 kts 65°
2026-05-06 01:17 35.72672 -87.79327 20540 ft 417 kts 66°
2026-05-06 01:18 35.73712 -87.76008 20063 ft 414 kts 66°
2026-05-06 01:18 35.74740 -87.72728 19586 ft 412 kts 66°
2026-05-06 01:18 35.75774 -87.69422 19101 ft 410 kts 66°
2026-05-06 01:18 35.76794 -87.66155 18688 ft 407 kts 66°
2026-05-06 01:19 35.77800 -87.62924 18338 ft 401 kts 66°
2026-05-06 01:19 35.78791 -87.59732 17969 ft 396 kts 67°
2026-05-06 01:19 35.79770 -87.56581 17580 ft 391 kts 67°
2026-05-06 01:19 35.80737 -87.53467 17232 ft 387 kts 67°
2026-05-06 01:20 35.81689 -87.50395 16981 ft 380 kts 67°
2026-05-06 01:20 35.82633 -87.47350 16666 ft 381 kts 67°
2026-05-06 01:20 35.83626 -87.44351 16343 ft 381 kts 65°
2026-05-06 01:20 35.84603 -87.41583 16045 ft 382 kts 64°
2026-05-06 01:21 35.85656 -87.38647 15716 ft 382 kts 64°
2026-05-06 01:21 35.86753 -87.35589 15374 ft 382 kts 64°
2026-05-06 01:21 35.87819 -87.32598 15039 ft 379 kts 64°
2026-05-06 01:21 35.88866 -87.29637 14704 ft 374 kts 64°
2026-05-06 01:22 35.89893 -87.26721 14377 ft 369 kts 64°
2026-05-06 01:22 35.90908 -87.23827 14062 ft 367 kts 65°
2026-05-06 01:22 35.91919 -87.20943 13745 ft 365 kts 65°
2026-05-06 01:22 35.92923 -87.18073 13402 ft 363 kts 65°
2026-05-06 01:23 35.93921 -87.15215 13060 ft 362 kts 65°
2026-05-06 01:23 35.94912 -87.12375 12721 ft 360 kts 65°
2026-05-06 01:23 35.95898 -87.09548 12399 ft 357 kts 65°
2026-05-06 01:23 35.96874 -87.06745 12085 ft 354 kts 65°
2026-05-06 01:24 35.97831 -87.03995 11781 ft 352 kts 65°
2026-05-06 01:24 35.98791 -87.01235 11466 ft 351 kts 66°
2026-05-06 01:24 35.99750 -86.98478 11180 ft 348 kts 66°
2026-05-06 01:24 36.00644 -86.95901 10993 ft 340 kts 65°
2026-05-06 01:25 36.01582 -86.93196 10616 ft 341 kts 66°
2026-05-06 01:25 36.02510 -86.90520 10280 ft 337 kts 66°
2026-05-06 01:25 36.03424 -86.87879 9988 ft 332 kts 66°
2026-05-06 01:25 36.04325 -86.85275 9701 ft 327 kts 66°
2026-05-06 01:26 36.05479 -86.82903 9358 ft 320 kts 43°
2026-05-06 01:26 36.07196 -86.81264 9123 ft 307 kts 20°
2026-05-06 01:26 36.07856 -86.80905 9019 ft 302 kts 14°
2026-05-06 01:27 36.09457 -86.80249 8819 ft 292 kts 10°
2026-05-06 01:27 36.11445 -86.79509 8563 ft 289 kts
2026-05-06 01:27 36.13331 -86.78802 8288 ft 286 kts
2026-05-06 01:27 36.15214 -86.78080 8082 ft 280 kts 11°
2026-05-06 01:28 36.17052 -86.77457 7991 ft 269 kts
2026-05-06 01:28 36.18896 -86.76983 7530 ft 273 kts
2026-05-06 01:28 36.20757 -86.76558 7150 ft 272 kts
2026-05-06 01:28 36.22613 -86.76135 6771 ft 269 kts
2026-05-06 01:29 36.24442 -86.75708 6385 ft 267 kts
2026-05-06 01:29 36.26243 -86.75263 6090 ft 261 kts
2026-05-06 01:29 36.28003 -86.74833 5781 ft 256 kts
2026-05-06 01:29 36.29741 -86.74382 5474 ft 256 kts 10°
2026-05-06 01:30 36.31451 -86.73693 5179 ft 259 kts 13°
2026-05-06 01:30 36.33159 -86.72972 4898 ft 261 kts 14°
2026-05-06 01:30 36.34883 -86.72261 4610 ft 262 kts 12°
2026-05-06 01:30 36.36614 -86.71598 4310 ft 262 kts 12°
2026-05-06 01:31 36.38356 -86.70960 4054 ft 261 kts 12°
2026-05-06 01:31 36.40124 -86.70329 4019 ft 272 kts 12°
2026-05-06 01:31 36.41856 -86.69276 3955 ft 280 kts 44°
2026-05-06 01:31 36.42808 -86.67357 3967 ft 249 kts 84°
2026-05-06 01:32 36.42804 -86.65344 4023 ft 228 kts 105°
2026-05-06 01:32 36.42624 -86.63407 3990 ft 224 kts 105°
2026-05-06 01:32 36.42436 -86.61499 3995 ft 221 kts 106°
2026-05-06 01:32 36.42262 -86.59604 3998 ft 220 kts 105°
2026-05-06 01:33 36.42096 -86.57731 4005 ft 218 kts 105°
2026-05-06 01:33 36.41707 -86.56014 3983 ft 194 kts 140°
2026-05-06 01:33 36.40660 -86.55249 4016 ft 171 kts 185°
2026-05-06 01:33 36.39495 -86.55449 4008 ft 172 kts 195°
2026-05-06 01:34 36.38323 -86.55732 3998 ft 170 kts 196°
2026-05-06 01:34 36.37275 -86.55970 3984 ft 159 kts 195°
2026-05-06 01:34 36.36246 -86.56192 3993 ft 151 kts 195°
2026-05-06 01:34 36.35211 -86.56409 4001 ft 148 kts 195°
2026-05-06 01:35 36.34192 -86.56620 3992 ft 144 kts 195°
2026-05-06 01:35 36.33254 -86.56984 4012 ft 146 kts 210°
2026-05-06 01:35 36.32317 -86.57521 4080 ft 149 kts 207°
2026-05-06 01:35 36.31380 -86.58019 4144 ft 149 kts 207°
2026-05-06 01:36 36.30400 -86.58531 4051 ft 153 kts 207°
2026-05-06 01:36 36.29420 -86.59036 3887 ft 148 kts 206°
2026-05-06 01:36 36.28490 -86.59513 3678 ft 145 kts 205°
2026-05-06 01:36 36.27567 -86.59983 3488 ft 142 kts 205°
2026-05-06 01:37 36.26649 -86.60452 3311 ft 144 kts 203°
2026-05-06 01:37 36.25714 -86.60921 3114 ft 143 kts 201°
2026-05-06 01:37 36.24787 -86.61333 2927 ft 141 kts 199°
2026-05-06 01:37 36.23866 -86.61716 2745 ft 139 kts 199°
2026-05-06 01:38 36.22967 -86.62081 2542 ft 139 kts 198°
2026-05-06 01:38 36.22037 -86.62454 2366 ft 145 kts 197°
2026-05-06 01:38 36.21062 -86.62843 2174 ft 148 kts 197°
2026-05-06 01:38 36.20082 -86.63235 1970 ft 146 kts 197°
2026-05-06 01:39 36.19163 -86.63603 1827 ft 132 kts 197°
2026-05-06 01:39 36.18324 -86.63940 1620 ft 118 kts 196°
2026-05-06 01:39 36.17591 -86.64231 1477 ft 113 kts 197°
2026-05-06 01:39 36.16814 -86.64549 1280 ft 122 kts 195°
2026-05-06 01:40 36.15995 -86.64858 1189 ft 121 kts 196°
2026-05-06 01:40 36.15156 -86.65186 1062 ft 130 kts 198°
2026-05-06 01:40 36.14337 -86.65543 879 ft 128 kts 198°
2026-05-06 01:40 36.13447 -86.65903 638 ft 129 kts 198°
2026-05-06 01:41 36.12652 -86.66215 574 ft 106 kts 198°
2026-05-06 01:41 36.12093 -86.66439 574 ft 64 kts 197°
2026-05-06 01:41 36.11868 -86.66530 577 ft 18 kts 197°
2026-05-06 01:41 36.11841 -86.66604 574 ft 10 kts 290°
2026-05-06 01:42 36.11856 -86.66647 576 ft 2 kts 308°
2026-05-06 01:42 36.11861 -86.66653 576 ft 0 kts 320°
2026-05-06 01:43 36.11864 -86.66656 576 ft 2 kts 325°
2026-05-06 01:43 36.11893 -86.66662 574 ft 6 kts
2026-05-06 01:43 36.11964 -86.66636 574 ft 13 kts 18°
2026-05-06 01:43 36.12049 -86.66600 575 ft 13 kts 19°
2026-05-06 01:44 36.12144 -86.66562 576 ft 16 kts 18°
2026-05-06 01:44 36.12258 -86.66529 573 ft 16 kts 347°
2026-05-06 01:44 36.12298 -86.66620 576 ft 12 kts 286°
2026-05-06 01:44 36.12326 -86.66719 577 ft 12 kts 289°
2026-05-06 01:45 36.12350 -86.66815 578 ft 12 kts 285°
2026-05-06 01:45 36.12399 -86.66895 574 ft 13 kts 317°
2026-05-06 01:45 36.12471 -86.66954 576 ft 13 kts
2026-05-06 01:45 36.12563 -86.66900 578 ft 16 kts 28°
2026-05-06 01:46 36.12658 -86.66833 580 ft 16 kts 33°
2026-05-06 01:46 36.12743 -86.66750 574 ft 15 kts 30°
2026-05-06 01:46 36.12826 -86.66741 576 ft 0 kts 359°
2026-05-06 01:46 36.12831 -86.66734 574 ft 2 kts 41°
2026-05-06 01:47 36.12854 -86.66712 578 ft 6 kts 39°
2026-05-06 01:47 36.12874 -86.66690 576 ft 0 kts 40°
2026-05-06 01:47 36.12879 -86.66685 574 ft 0 kts 41°